Location: Fond Mahaut
(18.0707°N, 63.0465°W)
Time: 01:45:09
(UTC+00:00)

Cosmos 292 Rocket - Pass Details

Date: 08 December 2019
Orbit: 673 x 694 km, 74.0° (Epoch: 19 January)

Event Time Altitude Azimuth Distance (km) Brightness Sun altitude
Rises 23:04:53 0° 347° (NNW) 3,064 7.1 -20.5°
Reaches altitude 10° 23:07:12 10° 348° (NNW) 2,145 6.2 -21.0°
Maximum altitude 23:12:02 83° 76° (ENE) 699 3.6 -22.1°
Drops below altitude 10° 23:16:51 10° 165° (SSE) 2,131 6.3 -23.2°
Sets 23:19:09 0° 166° (SSE) 3,043 7.2 -23.7°
